Kankakee, IL

12:16 PM CDT on May 23, 2018 (GMT -0500)
Greater Kankakee

Weather History for KIKK - March, 2013

Change the Weather History Date:

Tuesday, March 19, 2013

  Actual Average Record
Temperature  
Mean Temperature 28 °F -  
Max Temperature 36 °F 46 °F 81 °F (2012)
Min Temperature 19 °F 29 °F 19 °F (1993)
Degree Days  
Heating Degree Days 38    
Moisture  
Dew Point 15 °F    
Average Humidity 61    
Maximum Humidity 75    
Minimum Humidity 45    
Precipitation  
Precipitation 0.00 in - - ()
Sea Level Pressure  
Sea Level Pressure 29.99 in    
Wind  
Wind Speed 22 mph (West)    
Max Wind Speed 30 mph    
Max Gust Speed 38 mph    
Visibility 10 miles    
Events      
Averages and records for this station are not official NWS values.
T = Trace of Precipitation, MM = Missing Value Source: NWS Daily Summary

Daily Weather History Graph

Daily Weather History Graph

Search for Another Location

Airport or City:

Astronomy

Mar. 19, 2013 Rise Set
Actual Time 6:55 AM CDT 7:02 PM CDT
Civil Twilight 6:28 AM CDT 7:30 PM CDT
Nautical Twilight 5:56 AM CDT 8:02 PM CDT
Astronomical Twilight 5:23 AM CDT 8:35 PM CDT
Moon 11:43 AM CDT (3/19) 1:52 AM CDT (3/19)
Length of Visible Light 13h 01m
Length of Day
12h 06m
Waxing Crescent, 50% of the Moon is Illuminated
Mar 19
Waxing Crescent
Mar 19
First Quarter
Mar 27
Full
Apr 2
Last Quarter
Apr 10
New

Hourly Weather History & Observations

Time (CDT) Temp. Windchill Dew Point Humidity Pressure Visibility Wind Dir Wind Speed Gust Speed Precip Events Conditions
12:15 AM 24.1 °F 8.0 °F 15.4 °F 70% 29.86 in 10.0 mi West 25.3 mph 38.0 mph N/A   Overcast
12:35 AM 23.7 °F 8.2 °F 15.4 °F 71% 29.86 in 10.0 mi West 23.0 mph 27.6 mph N/A   Overcast
12:55 AM 23.7 °F 8.5 °F 16.2 °F 73% 29.86 in 10.0 mi West 21.9 mph 31.1 mph N/A   Overcast
1:15 AM 23.5 °F 8.3 °F 15.4 °F 71% 29.86 in 10.0 mi West 21.9 mph 25.3 mph N/A   Overcast
1:35 AM 24.8 °F 10.7 °F 14.0 °F 64% 29.86 in 10.0 mi West 19.6 mph 31.1 mph N/A   Overcast
1:55 AM 23.5 °F 9.9 °F 14.5 °F 69% 29.87 in 10.0 mi West 17.3 mph 29.9 mph N/A   Overcast
2:15 AM 22.5 °F 6.9 °F 12.7 °F 66% 29.86 in 10.0 mi West 21.9 mph 32.2 mph N/A   Scattered Clouds
2:35 AM 21.7 °F 5.6 °F 13.1 °F 69% 29.85 in 10.0 mi West 23.0 mph 27.6 mph N/A   Clear
2:55 AM 21.6 °F 6.5 °F 13.1 °F 70% 29.86 in 10.0 mi West 19.6 mph 24.2 mph N/A   Clear
3:15 AM 21.2 °F 7.3 °F 13.6 °F 73% 29.87 in 10.0 mi West 16.1 mph 20.7 mph N/A   Clear
3:35 AM 21.6 °F 6.1 °F 13.1 °F 70% 29.88 in 10.0 mi West 20.7 mph - N/A   Scattered Clouds
3:55 AM 21.9 °F 7.8 °F 14.2 °F 72% 29.88 in 10.0 mi West 17.3 mph 23.0 mph N/A   Overcast
4:15 AM 21.6 °F 6.5 °F 13.3 °F 70% 29.88 in 10.0 mi West 19.6 mph 29.9 mph N/A   Mostly Cloudy
4:35 AM 21.2 °F 5.2 °F 12.9 °F 70% 29.88 in 10.0 mi West 21.9 mph 32.2 mph N/A   Scattered Clouds
4:55 AM 20.7 °F 4.5 °F 12.2 °F 70% 29.89 in 10.0 mi West 21.9 mph - N/A   Scattered Clouds
5:15 AM 20.3 °F 5.7 °F 13.5 °F 75% 29.90 in 10.0 mi West 17.3 mph 20.7 mph N/A   Clear
5:35 AM 20.3 °F 4.4 °F 12.9 °F 73% 29.90 in 10.0 mi West 20.7 mph 25.3 mph N/A   Clear
5:55 AM 20.3 °F 4.4 °F 11.8 °F 70% 29.91 in 10.0 mi West 20.7 mph 32.2 mph N/A   Clear
6:15 AM 19.9 °F 4.8 °F 11.3 °F 69% 29.92 in 10.0 mi West 18.4 mph 26.5 mph N/A   Clear
6:35 AM 19.8 °F 4.5 °F 12.2 °F 72% 29.92 in 10.0 mi West 18.4 mph 27.6 mph N/A   Clear
6:55 AM 19.4 °F 3.6 °F 11.3 °F 71% 29.92 in 10.0 mi West 19.6 mph 27.6 mph N/A   Clear
7:15 AM 19.4 °F 2.8 °F 11.7 °F 72% 29.93 in 10.0 mi West 21.9 mph 28.8 mph N/A   Clear
7:35 AM 19.9 °F 3.5 °F 11.3 °F 69% 29.93 in 10.0 mi West 21.9 mph 29.9 mph N/A   Clear
7:55 AM 20.1 °F 3.4 °F 10.6 °F 67% 29.93 in 10.0 mi West 23.0 mph 34.5 mph N/A   Scattered Clouds
8:15 AM 20.7 °F 4.9 °F 10.9 °F 66% 29.94 in 10.0 mi West 20.7 mph 31.1 mph N/A   Clear
8:35 AM 21.2 °F 3.9 °F 10.4 °F 63% 29.95 in 10.0 mi West 26.5 mph 33.4 mph N/A   Clear
8:55 AM 21.7 °F 4.3 °F 10.6 °F 62% 29.96 in 10.0 mi West 27.6 mph 36.8 mph N/A   Clear
9:15 AM 22.6 °F 5.2 °F 10.9 °F 61% 29.96 in 10.0 mi West 28.8 mph 33.4 mph N/A   Clear
9:35 AM 23.4 °F 6.2 °F 11.1 °F 60% 29.96 in 10.0 mi West 28.8 mph 35.7 mph N/A   Clear
9:55 AM 23.7 °F 7.2 °F 11.3 °F 59% 29.97 in 10.0 mi West 26.5 mph 34.5 mph N/A   Clear
10:15 AM 24.8 °F 9.0 °F 11.5 °F 57% 29.98 in 10.0 mi West 25.3 mph 32.2 mph N/A   Clear
10:35 AM 25.7 °F 10.2 °F 12.0 °F 56% 29.99 in 10.0 mi West 25.3 mph 34.5 mph N/A   Scattered Clouds
10:55 AM 26.8 °F 11.9 °F 12.9 °F 56% 30.00 in 10.0 mi West 24.2 mph 34.5 mph N/A   Clear
11:15 AM 27.7 °F 12.6 °F 13.1 °F 54% 30.00 in 10.0 mi West 26.5 mph 36.8 mph N/A   Clear
11:35 AM 28.4 °F 13.0 °F 14.2 °F 55% 30.00 in 10.0 mi West 28.8 mph 33.4 mph N/A   Clear
11:55 AM 29.3 °F 14.5 °F 14.2 °F 53% 30.02 in 10.0 mi West 27.6 mph 36.8 mph N/A   Clear
12:15 PM 29.7 °F 14.5 °F 14.5 °F 53% 30.02 in 10.0 mi West 29.9 mph 38.0 mph N/A   Clear
12:35 PM 30.6 °F 15.9 °F 15.4 °F 54% 30.02 in 10.0 mi West 28.8 mph 36.8 mph N/A   Clear
12:55 PM 30.2 °F 16.2 °F 14.0 °F 51% 30.03 in 10.0 mi West 25.3 mph 35.7 mph N/A   Clear
1:15 PM 31.6 °F 17.4 °F 16.3 °F 53% 30.03 in 10.0 mi West 28.8 mph 38.0 mph N/A   Clear
1:35 PM 32.0 °F 18.4 °F 16.3 °F 52% 30.04 in 10.0 mi West 26.5 mph 35.7 mph N/A   Clear
1:55 PM 32.5 °F 19.6 °F 16.2 °F 51% 30.04 in 10.0 mi West 24.2 mph 35.7 mph N/A   Clear
2:15 PM 32.9 °F 20.1 °F 17.1 °F 52% 30.04 in 10.0 mi West 24.2 mph 35.7 mph N/A   Clear
2:35 PM 33.6 °F 20.5 °F 16.9 °F 50% 30.04 in 10.0 mi West 26.5 mph 34.5 mph N/A   Clear
2:55 PM 34.2 °F 21.0 °F 18.1 °F 52% 30.05 in 10.0 mi West 27.6 mph 34.5 mph N/A   Clear
3:15 PM 34.7 °F 22.8 °F 17.8 °F 50% 30.05 in 10.0 mi West 23.0 mph 35.7 mph N/A   Clear
3:35 PM 34.9 °F 23.6 °F 17.8 °F 50% 30.05 in 10.0 mi West 20.7 mph 33.4 mph N/A   Clear
3:55 PM 34.9 °F 23.0 °F 15.3 °F 45% 30.05 in 10.0 mi West 23.0 mph 33.4 mph N/A   Clear
4:15 PM 35.6 °F 24.2 °F 17.8 °F 48% 30.05 in 10.0 mi West 21.9 mph 29.9 mph N/A   Clear
4:35 PM 35.8 °F 23.9 °F 18.0 °F 48% 30.06 in 10.0 mi West 24.2 mph 31.1 mph N/A   Clear
4:55 PM 35.8 °F 23.9 °F 17.6 °F 48% 30.06 in 10.0 mi West 24.2 mph 31.1 mph N/A   Clear
5:15 PM 36.0 °F 23.9 °F 18.5 °F 49% 30.06 in 10.0 mi West 25.3 mph 31.1 mph N/A   Clear
5:35 PM 35.6 °F 23.7 °F 17.8 °F 48% 30.07 in 10.0 mi West 24.2 mph 27.6 mph N/A   Clear
5:55 PM 35.4 °F 24.6 °F 17.1 °F 47% 30.07 in 10.0 mi West 19.6 mph 27.6 mph N/A   Clear
6:15 PM 34.7 °F 23.7 °F 17.8 °F 50% 30.08 in 10.0 mi West 19.6 mph 26.5 mph N/A   Clear
6:35 PM 33.6 °F 22.6 °F 17.6 °F 52% 30.09 in 10.0 mi West 18.4 mph 24.2 mph N/A   Clear
6:55 PM 32.5 °F 21.5 °F 18.5 °F 56% 30.09 in 10.0 mi West 17.3 mph 25.3 mph N/A   Clear
7:15 PM 32.0 °F 22.5 °F 19.0 °F 59% 30.09 in 10.0 mi West 12.7 mph - N/A   Clear
7:35 PM 32.0 °F 21.2 °F 18.9 °F 58% 30.09 in 10.0 mi West 16.1 mph 20.7 mph N/A   Clear
7:55 PM 31.5 °F 21.4 °F 19.0 °F 60% 30.10 in 10.0 mi West 13.8 mph 19.6 mph N/A   Scattered Clouds
8:15 PM 31.1 °F 20.9 °F 19.0 °F 61% 30.10 in 10.0 mi West 13.8 mph 18.4 mph N/A   Clear
8:35 PM 31.1 °F 20.5 °F 17.8 °F 58% 30.10 in 10.0 mi West 15.0 mph 24.2 mph N/A   Scattered Clouds
8:55 PM 31.5 °F 20.9 °F 17.1 °F 55% 30.11 in 10.0 mi West 15.0 mph 19.6 mph N/A   Overcast
9:15 PM 30.2 °F 20.2 °F 18.0 °F 60% 30.11 in 10.0 mi West 12.7 mph 19.6 mph N/A   Scattered Clouds
9:35 PM 29.7 °F 19.6 °F 18.5 °F 63% 30.11 in 10.0 mi West 12.7 mph - N/A   Clear
9:55 PM 29.1 °F 19.4 °F 18.9 °F 66% 30.11 in 10.0 mi West 11.5 mph - N/A   Clear
10:15 PM 28.6 °F 18.7 °F 19.0 °F 67% 30.11 in 10.0 mi West 11.5 mph - N/A   Clear
10:35 PM 28.4 °F 18.5 °F 19.4 °F 69% 30.11 in 10.0 mi West 11.5 mph - N/A   Clear
10:55 PM 28.4 °F 18.0 °F 18.7 °F 67% 30.10 in 10.0 mi West 12.7 mph - N/A   Clear
11:15 PM 28.4 °F 17.0 °F 18.5 °F 66% 30.10 in 10.0 mi West 15.0 mph 19.6 mph N/A   Clear
11:35 PM 28.0 °F 17.5 °F 18.1 °F 66% 30.10 in 10.0 mi West 12.7 mph - N/A   Clear
11:55 PM 28.0 °F 18.1 °F 17.1 °F 63% 30.09 in 10.0 mi West 11.5 mph 19.6 mph N/A   Clear